C/2005 Q1 ( LINEAR )

Japanese version
Home page
Total 5,708 html files since Dec. 4, 1995
Updated on April 12, 2008

---------------------------------------------------------------------

* Profile

Discovery Date August 27, 2005
Magnitude 18.9 mag
Discoverer Lincoln Laboratory Near-Earth Asteroid Research project

* Orbital Elements

The following orbital elements are taken from MPC 61702:

Epoch 2005 Aug. 18.0 TT = JDT 2453600.5
T 2005 Aug. 25.5219 TT                                  MPC
q   6.408405             (2000.0)            P               Q
z  -0.000699       Peri.   44.6910      +0.2122991      +0.1582194
 +/-0.000002       Node    87.7275      +0.3750529      -0.9244241
e   1.004479       Incl.  105.1883      +0.9023660      +0.3469968
From 152 observations 2005 Aug. 27-2007 Sept. 12, mean residual 0".6.

* Magnitudes Graph

        m1 = 6.0 + 5 log d + 10.0 log r

---------------------------------------------------------------------

The orbital elements are published at the MPC Ephemerides and Orbital Elements.
The magnitudes graphs are made with Comet for Windows.

---------------------------------------------------------------------

Copyright(C) 1995-2007 Seiichi Yoshida (comet@aerith.net). All rights reserved.